Fairacres, NM

10:52 PM MDT on September 28, 2016 (GMT -0600)
Las Cruces International

Weather History for KLRU - February, 2014

Change the Weather History Date:

Monday, February 17, 2014

  Actual Average Record
Temperature  
Mean Temperature 58 °F -  
Max Temperature 71 °F 57 °F 77 °F (2016)
Min Temperature 44 °F 35 °F 32 °F (2016)
Degree Days  
Heating Degree Days 8    
Growing Degree Days 8 (Base 50)    
Moisture  
Dew Point 13 °F    
Average Humidity 17    
Maximum Humidity 24    
Minimum Humidity 11    
Precipitation  
Precipitation 0.00 in - - ()
Sea Level Pressure  
Sea Level Pressure 30.16 in    
Wind  
Wind Speed 8 mph (SSW)    
Max Wind Speed 14 mph    
Max Gust Speed 17 mph    
Visibility 10 miles    
Events      
Averages and records for this station are not official NWS values.
T = Trace of Precipitation, MM = Missing Value Source: NWS Daily Summary

Daily Weather History Graph

Daily Weather History Graph

Search for Another Location

Airport or City:

Trip Planner

Search our weather history database for the weather conditions in past years. The results will help you decide how hot, cold, wet, or windy it might be!

Date:

Astronomy

Feb. 17, 2014 Rise Set
Actual Time 6:48 AM MST 5:55 PM MST
Civil Twilight 6:23 AM MST 6:20 PM MST
Nautical Twilight 5:54 AM MST 6:49 PM MST
Astronomical Twilight 5:26 AM MST 7:17 PM MST
Moon 8:39 PM MST (2/17) 8:01 AM MST (2/17)
Length of Visible Light 11h 57m
Length of Day
11h 07m
Waning Gibbous, 93% of the Moon is Illuminated
Feb 17
Waning Gibbous
Feb 22
Last Quarter
Mar 1
New
Mar 8
First Quarter
Mar 16
Full

Hourly Weather History & Observations

Time (MST) Temp. Windchill Dew Point Humidity Pressure Visibility Wind Dir Wind Speed Gust Speed Precip Events Conditions
12:15 AM 57.4 °F - 8.8 °F 14% 30.12 in 10.0 mi West 11.5 mph - N/A   Clear
12:35 AM 55.6 °F - 9.1 °F 16% 30.12 in 10.0 mi West 13.8 mph - N/A   Clear
12:55 AM 55.8 °F - 9.5 °F 16% 30.13 in 10.0 mi West 11.5 mph - N/A   Clear
1:15 AM 55.6 °F - 9.5 °F 16% 30.13 in 10.0 mi West 11.5 mph - N/A   Clear
1:35 AM 54.5 °F - 9.7 °F 17% 30.13 in 10.0 mi WNW 11.5 mph - N/A   Clear
1:55 AM 55.6 °F - 9.1 °F 16% 30.13 in 10.0 mi West 12.7 mph - N/A   Clear
2:15 AM 52.7 °F - 9.1 °F 17% 30.13 in 10.0 mi WNW 9.2 mph - N/A   Clear
2:35 AM 50.7 °F - 8.6 °F 18% 30.14 in 10.0 mi NW 4.6 mph - N/A   Clear
2:55 AM 49.8 °F - 8.8 °F 19% 30.15 in 10.0 mi NNW 5.8 mph - N/A   Clear
3:15 AM 49.8 °F - 8.6 °F 19% 30.15 in 10.0 mi West 8.1 mph - N/A   Clear
3:35 AM 51.4 °F - 8.4 °F 18% 30.15 in 10.0 mi West 8.1 mph - N/A   Clear
3:55 AM 53.6 °F - 8.6 °F 16% 30.15 in 10.0 mi WNW 4.6 mph - N/A   Clear
4:15 AM 51.4 °F - 8.6 °F 18% 30.16 in 10.0 mi WNW 3.5 mph - N/A   Clear
4:35 AM 51.8 °F - 8.2 °F 17% 30.16 in 10.0 mi Calm Calm - N/A   Clear
4:55 AM 52.9 °F - 8.6 °F 17% 30.16 in 10.0 mi SSE 3.5 mph - N/A   Clear
5:15 AM 48.4 °F - 8.6 °F 20% 30.17 in 10.0 mi Calm Calm - N/A   Clear
5:35 AM 50.2 °F - 10.2 °F 20% 30.17 in 10.0 mi NNE 9.2 mph - N/A   Clear
5:55 AM 55.9 °F - 12.7 °F 18% 30.17 in 10.0 mi North 10.4 mph - N/A   Clear
6:15 AM 54.7 °F - 13.1 °F 19% 30.17 in 10.0 mi North 8.1 mph - N/A   Clear
6:35 AM 54.5 °F - 15.1 °F 21% 30.18 in 10.0 mi North 8.1 mph - N/A   Clear
6:55 AM 53.8 °F - 16.2 °F 23% 30.19 in 10.0 mi North 6.9 mph - N/A   Clear
7:15 AM 54.9 °F - 16.5 °F 22% 30.20 in 10.0 mi North 9.2 mph - N/A   Clear
7:35 AM 55.8 °F - 16.0 °F 21% 30.20 in 10.0 mi North 6.9 mph - N/A   Clear
7:55 AM 58.1 °F - 15.8 °F 19% 30.21 in 10.0 mi NNW 6.9 mph - N/A   Clear
8:15 AM 61.7 °F - 18.3 °F 19% 30.21 in 10.0 mi North 10.4 mph 16.1 mph N/A   Clear
8:35 AM 62.4 °F - 17.4 °F 18% 30.23 in 10.0 mi North 10.4 mph - N/A   Clear
8:55 AM 63.5 °F - 16.9 °F 17% 30.23 in 10.0 mi NNW 10.4 mph - N/A   Clear
9:15 AM 62.6 °F - 16.5 °F 17% 30.24 in 10.0 mi ESE 5.8 mph - N/A   Clear
9:35 AM 61.9 °F - 17.1 °F 18% 30.24 in 10.0 mi East 4.6 mph - N/A   Clear
9:55 AM 63.1 °F - 17.6 °F 17% 30.24 in 10.0 mi East 6.9 mph - N/A   Clear
10:15 AM 64.8 °F - 17.6 °F 16% 30.24 in 10.0 mi East 5.8 mph - N/A   Clear
10:35 AM 65.5 °F - 17.2 °F 16% 30.24 in 10.0 mi ENE 10.4 mph - N/A   Clear
10:55 AM 65.5 °F - 17.8 °F 16% 30.24 in 10.0 mi ENE 6.9 mph - N/A   Clear
11:15 AM 66.4 °F - 17.6 °F 15% 30.24 in 10.0 mi East 3.5 mph - N/A   Clear
11:35 AM 66.9 °F - 17.4 °F 15% 30.23 in 10.0 mi Calm Calm - N/A   Clear
11:55 AM 67.5 °F - 16.9 °F 14% 30.22 in 10.0 mi SSE 3.5 mph - N/A   Clear
12:15 PM 69.6 °F - 16.3 °F 13% 30.21 in 10.0 mi SSE 8.1 mph - N/A   Clear
12:35 PM 68.9 °F - 16.0 °F 13% 30.19 in 10.0 mi SSE 3.5 mph - N/A   Clear
12:55 PM 70.9 °F - 15.8 °F 12% 30.18 in 10.0 mi SSE 5.8 mph - N/A   Clear
1:15 PM 71.8 °F - 15.8 °F 12% 30.17 in 10.0 mi South 9.2 mph - N/A   Clear
1:35 PM 71.2 °F - 14.9 °F 12% 30.16 in 10.0 mi SSE 12.7 mph 17.3 mph N/A   Clear
1:55 PM 71.1 °F - 14.7 °F 12% 30.15 in 10.0 mi SE 11.5 mph - N/A   Clear
2:15 PM 70.9 °F - 14.5 °F 12% 30.15 in 10.0 mi SE 11.5 mph - N/A   Clear
2:35 PM 69.6 °F - 14.2 °F 12% 30.15 in 10.0 mi SSE 9.2 mph - N/A   Clear
2:55 PM 69.4 °F - 14.5 °F 12% 30.15 in 10.0 mi SE 8.1 mph - N/A   Clear
3:15 PM 69.6 °F - 14.4 °F 12% 30.14 in 10.0 mi SSE 10.4 mph - N/A   Clear
3:35 PM 69.8 °F - 14.5 °F 12% 30.13 in 10.0 mi SSE 10.4 mph - N/A   Clear
3:55 PM 70.3 °F - 14.7 °F 12% 30.12 in 10.0 mi SSE 11.5 mph - N/A   Clear
4:15 PM 70.7 °F - 14.7 °F 12% 30.12 in 10.0 mi South 12.7 mph - N/A   Clear
4:35 PM 70.3 °F - 14.0 °F 12% 30.12 in 10.0 mi South 13.8 mph 17.3 mph N/A   Clear
4:55 PM 70.0 °F - 13.6 °F 11% 30.12 in 10.0 mi South 11.5 mph - N/A   Clear
5:15 PM 69.1 °F - 14.0 °F 12% 30.12 in 10.0 mi South 10.4 mph - N/A   Clear
5:35 PM 67.8 °F - 14.5 °F 13% 30.12 in 10.0 mi South 6.9 mph - N/A   Clear
5:55 PM 67.3 °F - 14.0 °F 13% 30.13 in 10.0 mi SSW 5.8 mph - N/A   Clear
6:15 PM 65.7 °F - 13.8 °F 13% 30.13 in 10.0 mi SSW 4.6 mph - N/A   Clear
6:35 PM 64.4 °F - 13.5 °F 14% 30.13 in 10.0 mi Calm Calm - N/A   Clear
6:55 PM 62.8 °F - 13.1 °F 14% 30.13 in 10.0 mi SSW 3.5 mph - N/A   Clear
7:15 PM 60.4 °F - 12.6 °F 15% 30.13 in 10.0 mi SW 3.5 mph - N/A   Clear
7:35 PM 56.8 °F - 12.0 °F 17% 30.13 in 10.0 mi SW 3.5 mph - N/A   Clear
7:55 PM 56.7 °F - 11.3 °F 17% 30.13 in 10.0 mi SW 3.5 mph - N/A   Clear
8:15 PM 52.7 °F - 10.2 °F 18% 30.13 in 10.0 mi Calm Calm - N/A   Clear
8:35 PM 50.9 °F - 10.8 °F 20% 30.13 in 10.0 mi Calm Calm - N/A   Clear
8:55 PM 50.9 °F - 11.3 °F 20% 30.13 in 10.0 mi NNW 3.5 mph - N/A   Clear
9:15 PM 51.6 °F - 12.0 °F 21% 30.13 in 10.0 mi Calm Calm - N/A   Clear
9:35 PM 48.6 °F - 10.8 °F 22% 30.13 in 10.0 mi Calm Calm - N/A   Clear
9:55 PM 47.3 °F - 10.2 °F 22% 30.13 in 10.0 mi Calm Calm - N/A   Clear
10:15 PM 45.3 °F - 8.2 °F 22% 30.13 in 10.0 mi Calm Calm - N/A   Clear
10:35 PM 46.2 °F - 10.4 °F 23% 30.12 in 10.0 mi Calm Calm - N/A   Clear
10:55 PM 44.8 °F - 9.7 °F 24% 30.12 in 10.0 mi Calm Calm - N/A   Clear
11:15 PM 45.0 °F 43.5 °F 10.0 °F 24% 30.12 in 10.0 mi West 3.5 mph - N/A   Clear
11:35 PM 46.9 °F - 11.8 °F 24% 30.12 in 10.0 mi NW 4.6 mph - N/A   Clear
11:55 PM 47.5 °F - 12.2 °F 24% 30.12 in 10.0 mi Calm Calm - N/A   Clear